Regional Weather Roundup
Issued by NWS

Home | Current Version | Previous Version | Graphics & Text | Print | Product List | Glossary Off
Versions: 1 2 3 4 5 6 7 8 9 10 11 12 13 14 15 16 17 18 19 20 21 22 23 24 25 26 27 28 29 30 31 32 33 34 35 36 37 38 39 40 41 42 43 44 45 46 47 48 49 50

000
ASUS43 KTOP 151759
RWRKS

WEATHER ROUNDUP FOR KANSAS
NATIONAL WEATHER SERVICE GOODLAND KS
1200 PM CST FRI DEC 15 2017

NOTE:  "FAIR" INDICATES FEW OR NO CLOUDS BELOW 12,000 FEET WITH NO
SIGNIFICANT WEATHER AND/OR OBSTRUCTIONS TO VISIBILITY.

KSZ001>006-013>018-027>032-041>047-151900-
NORTHWEST KANSAS

CITY           SKY/WX    TMP DP  RH WIND       PRES   REMARKS
GOODLAND       SUNNY     52   8  17 SW18G25   30.01F
6HR MIN TEMP:  21; 6HR MAX TEMP:  53;

HAYS           SUNNY     47  25  42 SW16      30.07F
HILL CITY      SUNNY     50  26  39 SW13      30.03F
6HR MIN TEMP:  18; 6HR MAX TEMP:  50;

RUSSELL        SUNNY     43  25  49 SW15      30.06F
6HR MIN TEMP:  16; 6HR MAX TEMP:  43;

$$

KSZ061>065-074>080-084>089-151900-
SOUTHWEST KANSAS

CITY           SKY/WX    TMP DP  RH WIND       PRES   REMARKS
DODGE CITY     SUNNY     48  22  35 SW15      30.12F
6HR MIN TEMP:  17; 6HR MAX TEMP:  48;

GARDEN CITY    SUNNY     46  21  37 W13       30.10F
6HR MIN TEMP:  13; 6HR MAX TEMP:  46;

GREAT BEND     SUNNY     47  23  38 SW14      30.11F
LIBERAL        SUNNY     45  25  45 SW14      30.13F
$$

KSZ066>073-081>083-090>101-151900-
SOUTHEAST KANSAS

CITY           SKY/WX    TMP DP  RH WIND       PRES   REMARKS
CHANUTE        SUNNY     44  25  47 W10       30.19F
6HR MIN TEMP:  30; 6HR MAX TEMP:  44;

COFFEYVILLE    SUNNY     47  26  44 W10       30.21F
6HR MIN TEMP:  31; 6HR MAX TEMP:  47;

HUTCHINSON     SUNNY     45  26  47 SW14G21   30.14F
6HR MIN TEMP:  20; 6HR MAX TEMP:  45;

MEDICINE LODGE   N/A     44  24  45 SW10      30.17F
NEWTON         SUNNY     42  27  55 SW15      30.14F
PARSONS        SUNNY     45  27  49 W8        30.20F
6HR MIN TEMP:  26; 6HR MAX TEMP:  45;

WICHITA INTL   SUNNY     45  29  53 SW14      30.17F
6HR MIN TEMP:  25; 6HR MAX TEMP:  45;

WICHITA JABRA  SUNNY     44  28  53 SW14      30.17F
6HR MIN TEMP:  26; 6HR MAX TEMP:  44;

WICHITA MCCONL SUNNY     45  27  49 SW12      30.17F
WINFIELD       SUNNY     44  27  51 SW9G20    30.21F
6HR MIN TEMP:  23; 6HR MAX TEMP:  45;

$$

KSZ007>012-019>026-033>040-048>060-102>105-151900-
NORTHEAST KANSAS

CITY           SKY/WX    TMP DP  RH WIND       PRES   REMARKS
CONCORDIA      SUNNY     42  27  55 SW20      30.04F
6HR MIN TEMP:  24; 6HR MAX TEMP:  42;

EMPORIA        SUNNY     43  22  43 W12       30.14F
6HR MIN TEMP:  23; 6HR MAX TEMP:  43;

LAWRENCE       SUNNY     44  21  40 W12       30.14F
6HR MIN TEMP:  25; 6HR MAX TEMP:  44;

MANHATTAN      SUNNY     45  25  45 SW14      30.10F
6HR MIN TEMP:  24; 6HR MAX TEMP:  45;

OLATHE IND     SUNNY     42  21  43 W10       30.14F
6HR MIN TEMP:  29; 6HR MAX TEMP:  42;

OLATHE EXE     SUNNY     40  23  50 W8        30.13F
6HR MIN TEMP:  31; 6HR MAX TEMP:  40;

SALINA         SUNNY     47  27  45 SW13      30.12F
6HR MIN TEMP:  23; 6HR MAX TEMP:  47;

TOPEKA BILLARD SUNNY     43  21  41 SW10      30.14F
6HR MIN TEMP:  31; 6HR MAX TEMP:  44;

TOPEKA FORBES  SUNNY     44  22  41 W9        30.13F
6HR MIN TEMP:  28; 6HR MAX TEMP:  44;

$$




USA.gov is the U.S. government's official web portal to all federal, state and local government web resources and services.